Find Vinasat

NORAD ID: 32767 Int'l Des: 2008-018 Owner: VNPT Country: VN operational
HEOCIRCULARGSOGEO

Live Position

Loading 3D Globe...

About Vinasat

Description loading...

Upcoming Passes

Passes for default location (London). Set your location on the main map for personalized predictions.

Altitude History

Loading altitude history...

Two-Line Element Set

1 32767U 08018A 26105.18239117 -.00000323 00000-0 00000+0 0 9996
2 32767 0.0058 208.7225 0002253 211.1112 341.1199 1.00269592 65954
Epoch: Apr 15, 2026 • Age: 6 hours

Current Status

Altitude 35784.4 km
Velocity 3.07 km/s
Sub-Earth Point -0.03°S, 131.96°E
Launch Date Apr 18, 2008
Age 17.9 years
Type other

Technical Details

Classification Payload
Mass 2600.00 kg
Dry Mass 1200.00 kg
Total Mass 2600.00 kg
Length 5.00 m
Diameter 2.20 m
Span 26.00 m
Shape Box + 2 Pan
Manufacturer LMCSS
Bus Type A2100
Phase Status In Orbit
Owner/State VNPT/VN

Most Searched